^^
Meteo Knjazevac Station Historical Data
Daily Summary for June 11, 2021 Units:  English    Metric   Both
Daily Weekly Monthly Yearly Custom
  High: Low: Average:
Temperature: 46.2 °F 44.8 °F 45.4 °F
Dew Point: 45.7 °F 44.3 °F 45.1 °F
Humidity: 99% 98% 99%
Wind Speed: 9mph 2mph 6mph
Wind Gust: 19mph - -
Wind- - SSE
Pressure: 30.21 in 30.16 in -
Precipitation: 0.01 in    
Historical Graphs
 
 
Tabular Data for June 11, 2021
Time Temperature Dew Point Pressure Wind Wind Speed Wind Gust Humidity Rainfall Rate (Hourly) solar Conditions
00:00 46.2 °F 45.7 °F 30.21 in North 5 mph 14 mph 98% 0.00 in 0 W/m2
00:10 46.2 °F 45.7 °F 30.21 in North 6 mph 13 mph 98% 0.00 in 0 W/m2
00:20 46 °F 45.5 °F 30.21 in North 6 mph 14 mph 98% 0.00 in 0 W/m2
00:30 45.9 °F 45.3 °F 30.20 in North 6 mph 12 mph 98% 0.00 in 0 W/m2
00:40 45.7 °F 45.4 °F 30.20 in North 6 mph 12 mph 99% 0.00 in 0 W/m2
00:50 45.7 °F 45.4 °F 30.20 in North 5 mph 12 mph 99% 0.00 in 0 W/m2
01:00 45.6 °F 45.3 °F 30.19 in North 7 mph 14 mph 99% 0.00 in 0 W/m2
01:10 45.5 °F 45.2 °F 30.19 in North 6 mph 14 mph 99% 0.00 in 0 W/m2
01:20 45.3 °F 45.1 °F 30.19 in North 5 mph 14 mph 99% 0.00 in 0 W/m2
01:30 45.3 °F 45.1 °F 30.19 in North 2 mph 13 mph 99% 0.00 in 0 W/m2
01:40 45.3 °F 45.1 °F 30.19 in North 3 mph 13 mph 99% 0.00 in 0 W/m2
01:50 45.3 °F 45.1 °F 30.19 in North 5 mph 13 mph 99% 0.00 in 0 W/m2
02:00 45.4 °F 45.2 °F 30.18 in North 6 mph 16 mph 99% 0.00 in 0 W/m2
02:10 45.3 °F 45.1 °F 30.18 in North 7 mph 16 mph 99% 0.00 in 0 W/m2
02:20 45.3 °F 45.1 °F 30.18 in North 8 mph 15 mph 99% 0.00 in 0 W/m2
02:30 45.5 °F 45.2 °F 30.18 in North 8 mph 19 mph 99% 0.00 in 0 W/m2
02:40 45.5 °F 45.2 °F 30.17 in North 7 mph 19 mph 99% 0.00 in 0 W/m2
02:50 45.5 °F 45.2 °F 30.18 in North 6 mph 14 mph 99% 0.00 in 0 W/m2
03:00 45.3 °F 45.1 °F 30.18 in North 6 mph 13 mph 99% 0.00 in 0 W/m2
03:10 45.3 °F 45.1 °F 30.18 in North 9 mph 18 mph 99% 0.00 in 0 W/m2
03:20 45.1 °F 44.9 °F 30.18 in North 6 mph 15 mph 99% 0.00 in 0 W/m2
03:30 45.1 °F 44.9 °F 30.17 in North 6 mph 15 mph 99% 0.00 in 0 W/m2
03:40 45 °F 44.8 °F 30.18 in North 6 mph 15 mph 99% 0.00 in 0 W/m2
03:50 45 °F 44.7 °F 30.17 in North 5 mph 14 mph 99% 0.00 in 0 W/m2
04:00 45 °F 44.7 °F 30.17 in North 6 mph 17 mph 99% 0.00 in 0 W/m2
04:10 45 °F 44.7 °F 30.17 in North 6 mph 13 mph 99% 0.00 in 0 W/m2
04:20 45 °F 44.7 °F 30.17 in North 6 mph 13 mph 99% 0.00 in 0 W/m2
04:30 44.9 °F 44.6 °F 30.17 in North 6 mph 14 mph 99% 0.00 in 0 W/m2
04:40 44.8 °F 44.5 °F 30.17 in North 7 mph 13 mph 99% 0.00 in 0 W/m2
04:50 44.8 °F 44.3 °F 30.16 in North 6 mph 15 mph 98% 0.00 in 0 W/m2
Knjazevac, Serbia
Compliments of Weather Underground - 2 mb